Probability
1 2 1 0 0 0 0 0 0 0 0 0 1 3 5 4 4 5 4 4 5 6 7 9 11 14 16 16 13 8 4 4 5 5 4 4 3 3 3 2 2 2 2 2
1 1 1 0 0 0 0 0 0 0 0 0 1 3 5 5 5 4 3 2 5 6 7 9 11 14 14 14 13 9 6 5 6 7 7 5 3 3 2 1 1 1 1 1
0 0 0 0 0 0 0 0 0 0 0 0 0 1 3 4 4 3 1 1 3 6 7 8 10 12 12 11 10 9 8 7 8 10 9 7 4 2 1 1 0 0 1 1
0 0 0 0 0 0 0 0 0 0 0 0 0 0 1 2 2 2 1 0 2 5 7 8 10 12 12 10 8 8 7 7 10 12 11 9 6 4 3 2 2 2 3 3
0 0 0 0 0 0 0 0 0 0 0 0 0 0 0 1 1 1 0 0 2 5 6 8 11 12 12 10 7 6 5 7 10 13 13 10 8 6 4 3 4 4 3 3
0 0 0 0 0 0 0 0 0 0 0 0 0 0 0 0 0 0 0 1 3 6 6 8 10 12 11 9 7 6 7 8 11 13 13 11 8 6 4 4 4 3 2 1
0 0 0 0 0 0 0 0 0 0 0 0 0 0 0 0 0 0 1 3 6 6 6 7 9 11 10 8 8 8 9 10 12 12 11 10 8 7 5 4 3 2 1 0
0 0 0 0 0 0 0 0 0 0 0 0 0 0 0 0 0 1 3 6 8 7 7 8 9 10 10 9 9 9 10 10 10 9 7 6 6 6 6 4 2 1 0 0
0 0 0 0 0 0 0 0 0 0 0 0 0 0 0 0 0 1 4 7 8 6 6 9 10 11 10 9 9 9 9 8 6 5 4 3 3 5 6 4 2 1 1 0
0 0 0 0 0 0 0 0 0 0 0 0 0 0 0 0 0 1 4 6 7 5 6 9 10 10 9 8 8 8 8 6 4 3 1 1 2 4 5 5 4 2 1 1
0 0 0 0 0 0 0 0 0 0 0 0 0 0 0 0 1 2 4 5 6 5 6 7 8 7 7 6 6 6 5 3 2 2 1 0 1 2 4 4 3 2 1 0
0 0 0 0 0 0 0 0 0 0 0 0 0 0 0 0 1 3 4 4 5 6 5 4 4 5 5 4 4 4 3 1 1 1 0 0 0 1 3 3 3 2 1 0
0 0 0 0 0 0 0 0 0 0 0 0 0 0 0 1 2 3 4 4 5 5 4 2 2 3 3 3 3 3 1 1 1 1 0 0 0 1 2 3 3 2 1 0
0 0 0 0 0 0 0 0 0 0 0 0 0 0 0 1 3 3 3 3 3 3 1 1 0 1 1 1 3 3 2 2 2 1 0 0 0 0 1 3 3 2 1 0
0 0 0 0 0 0 0 0 0 0 0 0 1 1 1 2 3 3 2 1 1 1 0 0 0 0 0 1 2 2 2 2 2 1 0 0 0 0 1 3 3 2 1 0
0 0 0 0 0 0 0 0 0 0 0 1 1 2 2 3 3 3 1 1 1 0 0 0 0 0 0 0 1 1 1 2 2 1 0 0 0 1 2 3 3 2 1 0
0 0 0 0 0 0 0 0 0 1 1 1 1 2 3 3 3 2 1 0 0 0 0 0 0 0 0 0 0 1 1 2 2 1 0 0 0 1 3 3 3 2 1 0
0 0 0 0 0 0 0 0 1 2 2 1 1 2 3 2 1 1 0 0 0 0 0 0 0 0 0 0 1 2 3 3 2 1 0 0 0 1 2 2 2 2 1 0
0 0 0 0 0 0 0 0 1 2 2 1 1 2 2 1 0 0 0 0 0 0 0 0 0 0 0 0 1 3 3 3 3 1 1 0 0 1 1 1 1 1 0 0
0 0 0 0 0 0 0 0 0 1 2 1 1 1 1 0 0 0 0 0 0 0 0 0 0 0 0 1 2 3 3 3 3 3 2 1 0 0 0 0 0 0 0 0
0 0 0 0 0 0 0 0 0 1 2 1 0 0 0 0 0 0 0 0 0 0 1 1 1 1 1 2 3 3 3 3 3 3 2 1 0 0 0 0 0 0 0 0
0 0 0 0 0 0 0 0 0 0 1 1 0 0 0 0 0 0 0 0 1 1 2 2 2 2 3 3 3 3 3 3 3 2 1 0 0 0 0 0 0 0 0 0
0 0 0 0 0 0 0 0 0 0 0 0 0 0 0 0 0 0 0 1 2 3 3 3 3 3 3 3 3 3 3 3 2 1 0 0 0 0 0 0 0 0 0 0
0 0 0 0 0 0 0 0 0 0 0 0 0 0 0 0 0 0 1 2 3 3 3 3 3 3 3 3 3 2 2 1 1 0 0 0 0 0 0 0 0 0 0 0
0 0 0 0 0 0 0 0 0 0 0 0 0 0 0 0 0 0 1 2 3 3 3 3 3 3 3 2 1 1 1 0 0 0 0 0 0 0 0 0 0 0 0 0
0 0 0 0 0 0 0 0 0 0 0 0 0 0 0 0 0 0 1 2 3 3 3 3 3 3 3 1 0 0 0 0 0 0 0 0 0 0 0 0 0 0 0 0
Wind_Speed
2 3 4 8 8 6 3 3 5 5 2 1 2 4 4 1 1 2 2 2 3 3 2 2 2 3 3 3 3 3 2 2 2 2 2 1 1 1 1 1 1 1 1 2
2 5 9 5 3 3 3 3 5 4 0 2 1 3 3 2 3 4 4 4 4 3 2 3 3 3 4 4 3 3 2 2 2 2 2 2 1 1 1 1 0 1 1 2
7 7 3 4 3 3 4 5 5 4 2 2 1 4 3 2 1 2 3 3 4 6 5 4 3 3 3 3 4 3 3 2 2 2 1 1 1 1 1 1 1 1 1 1
5 5 3 3 4 5 6 6 5 3 2 2 1 3 6 3 2 4 5 4 5 4 4 4 4 3 4 4 3 2 2 2 2 2 3 3 2 2 2 1 1 1 1 1
5 3 4 5 6 6 5 2 3 2 3 0 1 2 7 1 4 7 6 6 5 5 5 5 5 5 4 3 2 2 2 1 1 2 3 3 2 2 1 1 1 1 1 2
5 3 4 5 2 4 3 5 5 4 4 1 3 3 7 5 7 6 6 6 5 5 4 4 3 3 2 2 2 2 2 1 1 1 2 3 3 2 2 2 2 2 1 1
4 3 2 2 2 1 4 5 4 4 3 5 2 3 8 6 6 6 6 6 5 5 5 4 4 4 3 2 2 2 2 1 1 2 2 3 3 3 4 3 3 2 2 2
2 5 4 3 5 5 4 8 7 4 5 5 2 5 7 4 3 3 3 3 4 4 5 5 5 5 4 3 3 2 2 2 2 2 2 2 2 2 2 3 2 3 3 4
6 6 4 2 2 7 5 3 5 6 2 1 4 6 7 2 2 1 1 2 4 4 4 4 4 4 4 4 3 3 3 2 2 2 2 2 2 2 3 3 3 3 3 3
7 4 4 2 3 2 4 7 5 5 3 3 4 4 5 5 5 3 2 3 3 2 3 3 3 3 3 3 3 2 3 3 3 2 3 2 3 3 3 2 3 3 3 3
5 4 3 2 2 4 3 4 5 4 4 5 3 7 5 7 6 5 5 3 3 3 3 2 2 2 1 0 1 1 1 2 2 2 3 2 2 2 2 2 3 3 3 3
4 5 2 4 3 2 4 5 7 5 4 4 3 9 4 4 4 4 3 2 2 3 3 2 2 1 1 1 1 1 1 1 2 2 2 2 2 2 2 3 3 3 3 3
6 5 2 5 4 1 2 3 4 5 4 4 4 8 2 0 1 2 2 2 2 2 2 2 1 1 1 1 0 1 1 2 2 2 2 2 3 3 3 3 3 3 3 4
6 5 6 7 7 4 2 3 4 5 4 5 8 8 5 3 2 2 3 3 2 2 2 2 1 0 0 1 0 1 2 1 2 2 2 3 3 3 3 3 3 3 3 3
4 4 4 5 4 3 4 5 5 6 7 8 8 8 9 6 6 5 4 4 3 2 2 2 1 1 1 1 1 1 2 2 1 2 2 3 3 3 2 2 3 3 3 3
3 3 2 2 2 3 3 5 5 5 5 5 4 6 5 3 4 4 4 5 4 2 2 2 1 1 0 1 1 2 2 2 2 2 3 3 3 3 3 3 3 3 3 3
2 4 3 3 2 1 4 5 5 4 4 6 7 8 4 4 6 7 6 5 5 4 3 2 2 2 2 1 1 2 2 2 2 2 3 3 3 3 3 3 3 3 3 3
5 4 3 1 1 5 8 2 4 4 3 5 4 3 6 6 4 3 4 6 5 4 4 3 2 2 1 1 1 1 2 2 2 2 3 3 3 3 3 3 3 3 3 3
5 6 4 3 2 5 5 2 3 4 3 4 5 4 4 6 5 1 3 5 5 5 4 3 2 2 1 1 1 1 1 2 2 3 3 4 3 3 4 4 4 3 3 3
4 4 5 4 3 5 6 3 1 3 3 3 6 7 7 7 4 4 4 4 4 3 2 2 1 1 0 1 0 0 1 2 3 4 4 3 3 3 4 4 4 3 3 3
2 2 3 4 4 7 5 3 2 3 6 2 5 7 8 6 6 4 5 4 4 3 2 2 2 1 1 1 0 0 2 3 4 4 3 3 3 3 4 3 3 3 3 3
4 3 3 4 3 7 2 2 4 6 2 2 3 5 6 4 3 4 5 4 4 3 2 2 2 1 1 1 1 1 3 4 3 3 3 4 4 4 3 3 4 3 3 3
3 5 5 6 6 4 2 2 2 2 2 2 4 4 7 5 4 4 4 4 3 3 3 2 2 1 1 1 1 2 4 3 3 3 4 4 4 4 4 3 4 3 2 2
2 1 2 1 3 3 3 2 1 0 1 2 5 6 7 6 6 5 4 4 3 2 2 2 2 1 2 2 2 3 3 2 2 3 4 4 4 5 4 3 2 3 3 3
3 1 1 1 3 3 3 1 1 1 2 3 4 4 6 7 5 5 4 4 3 2 1 2 2 2 3 3 3 3 2 1 2 3 4 4 4 4 4 4 3 3 4 4
3 4 4 5 6 4 4 2 1 2 2 3 4 3 3 5 5 4 3 3 3 2 2 1 2 2 3 3 3 3 2 1 1 3 4 3 3 4 3 4 4 4 4 5
Wind_Direction
109 102 213 219 203 205 205 226 260 270 263 127 249 265 284 257 179 209 198 179 184 204 207 189 180 168 157 160 158 172 175 184 161 163 171 178 215 231 251 238 224 204 191 185
53 246 232 209 194 195 209 240 263 287 252 149 246 287 276 226 216 210 206 201 198 193 195 193 190 173 173 177 176 180 196 190 183 185 186 182 183 213 231 234 204 204 188 180
198 235 197 171 203 209 231 209 226 231 6 52 81 314 287 273 227 220 223 212 205 195 195 199 191 188 181 191 199 200 206 196 186 166 126 95 69 40 18 305 257 238 212 203
227 245 190 201 225 191 248 225 202 190 139 271 173 274 281 260 250 237 237 222 217 213 202 197 191 191 203 210 203 201 188 177 178 157 150 155 163 199 230 234 244 263 229 214
238 211 188 213 227 186 221 165 146 146 150 348 332 216 280 251 243 241 236 230 221 212 203 199 196 195 198 197 189 190 175 180 168 159 164 166 179 209 234 232 233 252 256 234
242 232 199 208 209 167 147 72 57 56 78 278 246 199 273 233 228 236 231 228 215 206 202 199 194 178 175 164 170 171 165 205 186 175 180 183 195 203 217 240 237 251 268 269
304 287 245 172 120 80 108 94 30 356 1 255 246 207 252 247 233 223 225 225 217 200 194 190 190 188 184 175 184 185 176 207 208 201 212 213 211 206 214 226 224 234 248 249
216 278 244 198 186 185 175 146 160 204 229 271 299 237 257 265 262 239 226 214 201 198 201 203 201 194 192 189 188 181 186 229 241 233 244 242 228 227 237 234 227 228 233 238
185 249 275 226 189 148 145 169 164 140 175 266 272 276 298 290 298 265 244 207 207 208 212 211 206 197 192 194 197 190 198 221 241 241 244 245 234 232 242 247 242 243 243 243
168 228 278 280 78 49 139 143 105 122 161 251 278 266 259 256 247 243 228 221 221 203 200 203 201 201 199 199 202 194 201 217 235 236 242 252 247 241 248 252 257 258 256 253
155 173 298 9 163 189 118 108 115 125 157 171 253 268 237 228 218 217 227 219 199 193 191 186 187 185 194 203 216 211 228 226 238 242 249 261 259 254 250 251 257 256 259 258
150 130 233 265 260 196 164 165 151 157 211 183 198 264 289 235 210 196 204 204 176 171 166 160 164 152 136 158 203 230 252 259 258 251 246 252 258 259 256 258 262 257 260 257
143 120 70 340 337 9 117 160 159 139 131 167 192 261 320 28 159 170 168 173 158 134 123 117 124 149 186 214 210 264 272 274 287 288 273 272 268 266 264 266 268 261 258 261
129 132 168 202 223 211 223 210 169 144 164 207 224 245 275 252 205 196 172 168 153 138 134 125 124 158 238 267 274 277 291 285 293 301 289 284 283 276 268 268 272 266 257 254
119 170 212 232 234 204 223 232 196 190 196 201 232 233 245 223 201 194 169 147 134 131 127 138 165 208 246 308 322 322 313 310 306 305 295 285 291 293 290 282 282 280 276 269
97 164 179 275 253 221 250 247 218 217 208 210 224 252 243 182 152 159 166 155 152 158 158 154 160 181 247 287 307 325 314 314 323 298 287 291 301 299 292 285 285 285 282 280
149 145 140 246 289 352 267 238 210 206 203 184 209 230 172 159 174 184 183 168 167 170 169 175 193 217 239 259 269 285 293 314 323 302 296 297 299 295 289 289 296 291 285 282
154 132 136 159 90 233 245 252 189 181 229 214 208 197 177 174 168 162 169 166 173 177 178 187 199 224 251 269 283 293 312 314 319 319 310 303 299 294 294 295 293 290 284 277
161 140 129 134 193 272 288 260 177 171 255 220 184 169 147 123 90 21 196 174 181 182 183 191 196 194 215 255 261 320 328 333 333 322 316 313 308 304 303 301 295 291 291 289
80 111 125 142 175 236 253 273 178 108 278 236 170 164 153 129 141 234 201 167 170 168 166 170 169 143 227 273 239 65 324 329 313 304 304 304 305 298 292 290 291 292 288 282
75 75 145 173 208 254 261 276 119 166 244 227 171 167 162 175 192 186 150 153 161 163 172 157 143 160 238 255 117 292 299 293 289 297 308 312 307 297 286 288 290 292 294 295
173 167 190 159 197 253 294 119 172 217 244 170 165 163 161 163 144 138 146 155 158 154 153 145 141 219 282 263 164 277 288 288 300 310 314 312 309 306 309 304 300 297 292 293
191 191 187 189 213 252 269 217 241 172 169 184 156 153 148 144 152 151 153 158 160 163 169 162 156 195 293 274 201 251 282 299 315 325 317 310 312 310 307 297 296 302 293 279
280 143 137 248 281 294 306 322 345 165 193 176 152 151 147 151 159 160 158 161 164 174 175 162 149 195 282 288 274 255 279 301 317 314 311 313 316 314 314 304 289 285 285 279
243 170 145 262 287 329 329 331 357 26 62 102 118 137 149 144 154 163 165 173 178 180 188 169 189 219 254 276 286 280 279 299 312 308 309 312 309 303 306 306 290 276 261 248
225 189 183 225 226 202 250 279 138 108 110 127 119 112 132 147 155 156 166 180 180 187 190 207 226 235 256 268 278 282 278 264 281 300 305 305 306 307 306 308 312 297 281 287